date,smallcap,bench
04/03/2019,100,100
05/03/2019,100.31,99.77785403
06/03/2019,100.02,99.59905362
07/03/2019,98.93,98.52625115
08/03/2019,98.11,97.48234572
11/03/2019,99.2,98.30591125
12/03/2019,99.58,98.6418393
13/03/2019,100.51,99.17643447
14/03/2019,101.5,100.0234788
15/03/2019,101.97,100.5996135
18/03/2019,101.75,100.614062
19/03/2019,103.03,101.4719428
20/03/2019,102.1,100.4948617
21/03/2019,101.67,100.3214795
22/03/2019,100.47,99.06445845
25/03/2019,99.27,98.3239719
26/03/2019,100.55,99.1800466
27/03/2019,100.51,99.01930683
28/03/2019,100.9,98.85134281
29/03/2019,102.08,99.69296899
01/04/2019,103.45,101.2407665
02/04/2019,103.83,101.6561614
03/04/2019,105.3,103.1840922
04/04/2019,104.41,102.7235457
05/04/2019,104.82,103.0233524
08/04/2019,104.66,102.5700302
09/04/2019,104.16,102.0137622
10/04/2019,104.66,102.4761148
11/04/2019,104.94,102.8192671
12/04/2019,105.24,103.3502501
15/04/2019,105.87,103.8866514
16/04/2019,106.09,104.1629793
17/04/2019,105.88,103.9209666
18/04/2019,106.01,104.043779
23/04/2019,106.71,104.3110766
24/04/2019,106.52,104.1376944
25/04/2019,106.41,103.6645054
26/04/2019,105.92,103.9372212
29/04/2019,106.13,104.2966281
30/04/2019,106.28,104.1810399
02/05/2019,105.15,103.4206867
03/05/2019,106.23,103.9661182
06/05/2019,104.76,102.90054
07/05/2019,103.5,101.9162347
08/05/2019,103.98,102.0769745
09/05/2019,103.98,100.1553216
10/05/2019,102.89,100.6772743
13/05/2019,100.62,98.72853041
14/05/2019,102.32,100.0451516
15/05/2019,102.86,100.2058914
16/05/2019,104.4,101.5279308
17/05/2019,103.92,100.9554083
20/05/2019,102.52,99.76882371
21/05/2019,103.42,100.6646318
22/05/2019,103.97,100.6881107
23/05/2019,101.62,98.98679767
24/05/2019,102.01,99.54306561
27/05/2019,102.26,99.66226589
28/05/2019,102.48,99.81578139
29/05/2019,100.39,98.18490491
31/05/2019,100.17,98.15420181
03/06/2019,99.98,97.95914682
04/06/2019,100.68,98.79896693
05/06/2019,101.43,99.37871372
06/06/2019,101.03,99.11683433
07/06/2019,101.79,100.0884972
11/06/2019,103.69,101.0908631
12/06/2019,103.34,100.8055049
13/06/2019,103.57,101.0005599
14/06/2019,102.72,100.3955282
17/06/2019,102.35,100.2943886
18/06/2019,104.17,101.6977009
19/06/2019,104.53,101.8421861
20/06/2019,105.3,102.3533024
21/06/2019,105.01,102.0264047
24/06/2019,104.6,101.6417129
25/06/2019,104.91,101.7031191
26/06/2019,104.53,101.5008398
27/06/2019,104.31,101.8620528
28/06/2019,105.01,102.8120428
01/07/2019,105.91,103.904712
02/07/2019,105.73,103.8541422
03/07/2019,106.11,104.8131626
04/07/2019,106.1,105.1219997
05/07/2019,104.77,104.2243855
08/07/2019,104.48,104.1521429
09/07/2019,103.09,103.3339956
10/07/2019,102.96,103.3159349
11/07/2019,103.13,103.485705
12/07/2019,103.42,103.9679243
15/07/2019,103.42,104.4393072
16/07/2019,103.48,104.4718164
17/07/2019,102.83,103.9841789
18/07/2019,102.14,103.429717
19/07/2019,102.64,103.7963481
22/07/2019,102.54,103.9083242
23/07/2019,103.49,104.8294172
24/07/2019,104.1,105.3477578
25/07/2019,103.56,105.1779877
26/07/2019,103.92,105.1364482
29/07/2019,103.25,104.7246654
30/07/2019,101.42,103.0215464
31/07/2019,102.11,103.1479709
01/08/2019,102.55,103.6301902
02/08/2019,99.82,101.4827792
05/08/2019,97.53,99.03917354
06/08/2019,97.54,98.93983998
07/08/2019,97.46,99.07890697
08/08/2019,99.34,100.4948617
09/08/2019,98.07,99.52139284
12/08/2019,97.42,98.8314761
13/08/2019,97.94,99.24867706
14/08/2019,95.58,97.31799382
16/08/2019,95.48,98.14697755
19/08/2019,97.25,99.8103632
20/08/2019,96.67,98.92177934
21/08/2019,98.09,100.4063646
22/08/2019,97.47,100.1769943
23/08/2019,96.89,99.59182936
26/08/2019,96.31,99.22519822
27/08/2019,96.96,100.0198667
28/08/2019,96.35,99.3949683
29/08/2019,97.35,100.2456248
30/08/2019,98.67,101.2335422
02/09/2019,98.7,101.2931424
03/09/2019,98.16,100.9174809
04/09/2019,99.05,101.9342954
05/09/2019,100.63,102.8824794
06/09/2019,100.82,102.9890372
09/09/2019,100.76,102.8987339
10/09/2019,100.33,102.9745887
11/09/2019,101.33,104.1069913
12/09/2019,101.28,104.2406401
13/09/2019,102,105.1942423
16/09/2019,101.5,104.9179144
17/09/2019,101.33,104.6072712
18/09/2019,101.57,104.6831259
19/09/2019,102.08,105.1183875
20/09/2019,102.22,105.0931026
23/09/2019,101.13,103.9119363
24/09/2019,101.36,104.1629793
25/09/2019,100.14,103.2671712
26/09/2019,100.51,103.7511965
27/09/2019,100.55,104.2027127
30/09/2019,100.79,104.3941556
01/10/2019,99.98,103.4080442
02/10/2019,97.52,101.0926692
03/10/2019,97.03,100.8235655
04/10/2019,98.15,101.5405732
07/10/2019,98.52,101.9072044
08/10/2019,97.43,100.6628258
09/10/2019,97.38,100.8524626
10/10/2019,97.81,101.3419061
11/10/2019,100.05,104.5097437
14/10/2019,99.63,104.0762882
15/10/2019,100.7,105.6674312
16/10/2019,100.47,105.2050787
17/10/2019,100.19,105.3387274
18/10/2019,99.89,105.1003269
21/10/2019,100.66,106.0430927
22/10/2019,100.19,105.716195
23/10/2019,99.77,105.5518431
24/10/2019,100.32,106.0051653
25/10/2019,100.64,106.2507902
28/10/2019,101.79,107.0906103
29/10/2019,101.8,106.9190341
30/10/2019,101.55,106.7637125
31/10/2019,101.33,106.3320631
04/11/2019,102.5,108.4234861
05/11/2019,103.08,108.6889776
06/11/2019,102.87,108.6311835
07/11/2019,104.08,109.8394408
08/11/2019,103.04,109.3283245
11/11/2019,103.35,109.3283245
12/11/2019,103.02,109.4511369
13/11/2019,102.57,108.9436327
14/11/2019,102.42,108.7359353
15/11/2019,103.66,109.5017067
18/11/2019,103.52,109.6227131
19/11/2019,103.47,109.7112102
20/11/2019,103.22,109.2903972
21/11/2019,102.49,108.6022865
22/11/2019,102.83,109.1820333
25/11/2019,104.34,110.4553089
26/11/2019,104.52,110.9754556
27/11/2019,105.07,111.1976015
28/11/2019,105.3,111.1795409
29/11/2019,104.62,110.4408604
02/12/2019,103.35,109.1621666
03/12/2019,102.79,108.5914501
04/12/2019,104.45,110.0832596
05/12/2019,104.6,110.2819267
06/12/2019,105.88,111.5263053
09/12/2019,105.55,111.2264986
10/12/2019,105.12,110.7858188
11/12/2019,105.27,110.8165219
12/12/2019,105.81,111.2860987
13/12/2019,107.83,112.855569
16/12/2019,109.24,114.3564088
17/12/2019,108.29,113.496722
18/12/2019,107.59,113.0867453
19/12/2019,108.14,113.023533
20/12/2019,108.52,113.5870252
23/12/2019,108.87,113.9066987
24/12/2019,108.87,114.3220936
27/12/2019,109.93,114.8169553
30/12/2019,108.9,113.8434864
31/12/2019,109.16,113.8290379
02/01/2020,110.39,115.0806408
03/01/2020,109.49,114.2642995
06/01/2020,108.67,113.5870252
07/01/2020,109.44,114.0963355
08/01/2020,109.42,113.9608806
09/01/2020,109.78,114.4792212
10/01/2020,109.67,114.3437664
13/01/2020,110.14,114.1685781
14/01/2020,110.87,114.7067854
15/01/2020,111.03,114.6905308
16/01/2020,111.17,115.0463256
17/01/2020,112.37,115.9005942
20/01/2020,112.47,115.9294912
21/01/2020,112.89,115.5520237
22/01/2020,112.8,115.644133
23/01/2020,111.7,114.3401542
24/01/2020,112.64,115.1294045
27/01/2020,110.1,112.6261988
28/01/2020,110.24,113.2601275
29/01/2020,110.48,113.776662
30/01/2020,109.77,112.297495
31/01/2020,109.36,111.5335296
03/02/2020,109.36,111.7773483
04/02/2020,111.46,113.9482382
05/02/2020,112.78,115.3154292
06/02/2020,112.89,115.2612473
07/02/2020,112.52,114.6652459
10/02/2020,113.16,114.7826401
11/02/2020,114.2,116.2473586
12/02/2020,115.02,117.2136033
13/02/2020,114.74,117.2840398
14/02/2020,115.11,117.5061858
17/02/2020,115.97,117.8385017
18/02/2020,115.15,117.3364157
19/02/2020,116.57,118.4489516
20/02/2020,115.81,117.8312774
21/02/2020,115.32,117.2641731
24/02/2020,110.65,112.4329498
25/02/2020,108.1,110.540194
26/02/2020,107.91,110.3072116
27/02/2020,103.4,105.5265582
28/02/2020,100.9,102.4977876
02/03/2020,100.97,101.8638588
03/03/2020,104.27,104.3183009
04/03/2020,105,104.6759017
05/03/2020,103.26,102.6603334
06/03/2020,100.03,99.42747747
09/03/2020,91.81,92.28810345
10/03/2020,90.73,91.30921635
11/03/2020,88.25,89.68737019
12/03/2020,78.14,79.56257111
13/03/2020,77.63,80.4601853
16/03/2020,71.7,75.32373711
17/03/2020,70.4,75.21898535
18/03/2020,65.88,73.08963499
19/03/2020,67.02,74.0685221
20/03/2020,68.86,76.44530333
23/03/2020,67,73.22508985
24/03/2020,72.19,79.00810923
25/03/2020,75.05,81.19886579
26/03/2020,78.1,83.46186494
27/03/2020,75.11,81.05799274
30/03/2020,76.1,81.64315772
31/03/2020,78.02,83.96395095
01/04/2020,76.43,81.8544673
02/04/2020,77.04,81.98992216
03/04/2020,76.13,81.03270783
06/04/2020,79.73,84.44075205
07/04/2020,83,86.76696346
08/04/2020,83.74,87.64290487
09/04/2020,85.08,89.63499431
14/04/2020,85.89,90.37006267
15/04/2020,82.77,86.9186729
16/04/2020,83.3,87.02703679
17/04/2020,85.49,89.67472774
20/04/2020,85.35,90.05219527
21/04/2020,82.82,87.82712348
22/04/2020,83.74,89.17986599
23/04/2020,85.31,90.67709368
24/04/2020,84.58,89.65124889
27/04/2020,85.94,91.06900973
28/04/2020,86.93,92.51747368
29/04/2020,88.86,94.86535787
30/04/2020,87.82,93.5415124
04/05/2020,85.05,90.33394138
05/05/2020,86.77,92.14000614
06/05/2020,86.42,91.90882985
07/05/2020,88.06,93.27060268
08/05/2020,89.05,93.06540736
11/05/2020,89.58,94.05804692
12/05/2020,90.28,93.93523452
13/05/2020,90.12,92.31158229
14/05/2020,87.63,89.77947949
15/05/2020,88.4,90.79629396
18/05/2020,91.5,94.07249544
19/05/2020,91.55,93.90633748
20/05/2020,92.81,94.79130922
22/05/2020,93.46,95.03332189
25/05/2020,94.71,96.44566454
26/05/2020,94.91,98.32577796
27/05/2020,93.79,97.75867363
28/05/2020,94.85,99.74534487
29/05/2020,94.58,98.80980332
02/06/2020,97.41,100.9662446
03/06/2020,99.14,102.9402734
04/06/2020,98.75,102.5302967
05/06/2020,100.16,104.211743
08/06/2020,99,103.4748686
09/06/2020,97.81,102.0300168
10/06/2020,97.67,101.3057848
11/06/2020,94.32,97.22949665
12/06/2020,94.62,97.74061298
15/06/2020,95.42,97.75867363
16/06/2020,97.27,100.4280373
17/06/2020,98.39,101.0258448
18/06/2020,97.85,100.4551283
19/06/2020,98,100.7946685
22/06/2020,97.91,100.0180606
23/06/2020,97.91,101.0655782
24/06/2020,97.25,98.35828713
25/06/2020,97.43,98.6111362
26/06/2020,96.77,98.33480829
29/06/2020,97.17,98.49916018
30/06/2020,97.87,98.79896693
01/07/2020,98.36,99.38413191
02/07/2020,99.55,101.1125359
03/07/2020,99.72,100.6790804
06/07/2020,100.97,102.2196536
07/07/2020,100.92,101.7265979
08/07/2020,100.67,100.8127291
09/07/2020,101.42,99.75798732
10/07/2020,101.72,100.668244
13/07/2020,102.56,101.6940888
14/07/2020,100.69,100.656809
15/07/2020,102.77,102.5212664
16/07/2020,103.14,102.0101501
17/07/2020,103.07,101.9108165
20/07/2020,104.51,103.0558616
21/07/2020,105.45,103.9390273
22/07/2020,105.02,103.651863
23/07/2020,105.25,103.5091838
24/07/2020,102.86,101.9126226
27/07/2020,103.39,101.5712763
28/07/2020,102.95,102.147411
29/07/2020,103.24,102.2720295
30/07/2020,100.41,100.4587405
31/07/2020,100.93,100.2636855
03/08/2020,102.81,102.035435
04/08/2020,102.02,102.2485506
05/08/2020,101.93,103.8613665
06/08/2020,102.1,103.4098503
07/08/2020,102.6,103.9119363
10/08/2020,102.36,104.5892106
11/08/2020,104.37,106.4386209
12/08/2020,105.03,106.9389008
13/08/2020,106.08,106.6264516
14/08/2020,104.46,105.3315032
17/08/2020,105.38,105.548231
18/08/2020,104.58,104.7643989
19/08/2020,105.17,105.1815998
20/08/2020,104.47,104.4736224
21/08/2020,104.53,104.5693439
24/08/2020,106.01,105.8715166
25/08/2020,105.8,105.6981343
26/08/2020,108.68,107.000307
27/08/2020,108.34,106.442233
28/08/2020,108.12,106.3790208
31/08/2020,108.22,105.9744622
01/09/2020,107.82,105.3730427
02/09/2020,108.63,106.5794939
03/09/2020,105.79,105.1617331
04/09/2020,103.78,104.0257184
07/09/2020,106.37,105.8227528
08/09/2020,104.02,104.6650653
09/09/2020,104.9,105.9275046
10/09/2020,103.75,105.2953819
11/09/2020,103.76,105.1201936
14/09/2020,104.66,105.5626795
15/09/2020,105.66,106.1370081
16/09/2020,106.63,107.2369015
17/09/2020,106.67,107.1068649
18/09/2020,107.03,106.2074446
21/09/2020,103.33,102.2142354
22/09/2020,104.6,102.3641388
23/09/2020,104.97,102.5917029
24/09/2020,103.82,101.4267912
25/09/2020,104.54,101.701313
28/09/2020,107.1,104.1106034
29/09/2020,107.62,103.5669779
30/09/2020,108.73,104.2839856
01/10/2020,109.69,104.6163015
02/10/2020,109.93,104.7463382
05/10/2020,110.82,106.0737958
06/10/2020,110.21,106.7853853
07/10/2020,110.09,106.4187542
08/10/2020,110.74,107.3976413
09/10/2020,112.48,107.8419332
12/10/2020,114.17,108.8262385
13/10/2020,114.07,107.724539
14/10/2020,113.92,108.0333761
15/10/2020,112.07,106.0756019
16/10/2020,114.25,106.4476512
19/10/2020,113.39,106.4819664
20/10/2020,112.42,106.4187542
21/10/2020,110.73,105.0316964
22/10/2020,110.09,105.0154419
23/10/2020,109.63,105.2484242
26/10/2020,106.86,102.9926493
27/10/2020,107.23,101.9776409
28/10/2020,103.06,98.77368202
29/10/2020,103.1,98.57140277
30/10/2020,104.26,99.43470173
02/11/2020,105.17,100.2961946
03/11/2020,107.15,102.678394
04/11/2020,109.72,104.713829
05/11/2020,113.03,105.9148621
06/11/2020,113.9,105.5283642
09/11/2020,111.37,109.7726164
10/11/2020,109.89,110.7280247
11/11/2020,112.04,111.6913585
12/11/2020,111.47,111.2680381
13/11/2020,112.24,111.2192743
16/11/2020,113.88,113.776662
17/11/2020,113.75,113.3143095
18/11/2020,114.94,113.9175351
19/11/2020,114.32,112.8357023
20/11/2020,115.93,113.6971952
23/11/2020,116.47,113.7459589
24/11/2020,116.87,114.305839
25/11/2020,117.36,114.1071719
26/11/2020,117.96,113.8109773
27/11/2020,120.49,114.2733298
30/11/2020,120.13,113.3323701
01/12/2020,121.26,114.2426267
02/12/2020,119.73,113.6412072
03/12/2020,120.26,114.3473785
04/12/2020,120.53,115.0156225
07/12/2020,120.41,114.2173418
08/12/2020,120.37,114.5984215
09/12/2020,120.92,114.919901
10/12/2020,119.97,113.9879716
11/12/2020,119.03,113.44254
14/12/2020,121.07,114.5261789
15/12/2020,122.32,115.1564955
16/12/2020,123.55,116.3322437
17/12/2020,125.29,117.3978219
18/12/2020,126,116.7295779
21/12/2020,123.51,114.2913905
22/12/2020,125.48,115.7452726
23/12/2020,127.7,117.5639798
24/12/2020,127.7,117.9902111
28/12/2020,129.96,118.4308909
29/12/2020,130.93,119.8197547
30/12/2020,131.49,119.3754628
31/12/2020,131.95,119.2743232
04/01/2021,132.33,119.4802146
05/01/2021,133.6,119.6138634
06/01/2021,135.33,120.52412
07/01/2021,136.57,121.3097582
08/01/2021,137.26,122.169445
11/01/2021,135.02,120.7841933
12/01/2021,135,121.2971157
13/01/2021,134.16,121.5608012
14/01/2021,135.36,122.7744767
15/01/2021,132.31,121.528292
18/01/2021,134.07,122.1315176
19/01/2021,135.41,121.8750564
20/01/2021,137.34,122.9821741
21/01/2021,138.26,123.1501382
22/01/2021,136.8,122.1622207
25/01/2021,134.66,120.6559627
26/01/2021,135.22,121.4361827
27/01/2021,132.55,120.161101
28/01/2021,133.43,121.1454063
29/01/2021,133.08,119.5271722
01/02/2021,135.34,120.9088118
02/02/2021,137.58,122.6552764
03/02/2021,138.31,123.2133504
04/02/2021,138.73,123.646806
05/02/2021,140.17,124.1976557
08/02/2021,140.45,124.5010746
09/02/2021,140.3,124.0423342
10/02/2021,139.45,123.8454731
11/02/2021,140.81,124.5245535
12/02/2021,140.8,124.9670393
15/02/2021,143.02,126.6268128
16/02/2021,143.25,126.6972494
17/02/2021,140.59,125.1133306
18/02/2021,139.07,123.4969026
19/02/2021,141.07,124.5697051
22/02/2021,140.4,123.9682855
23/02/2021,137.26,123.4174357
24/02/2021,137.61,124.4396684
25/02/2021,137.89,124.3493652
26/02/2021,136.07,122.5505247
01/03/2021,139.03,125.0392819
02/03/2021,138.9,125.0790153
03/03/2021,138.1,125.1765428
04/03/2021,135.87,124.5787354
05/03/2021,133.09,123.2747566
08/03/2021,135.26,125.3607614
09/03/2021,138.5,126.7460131
10/03/2021,138.69,127.0891654
11/03/2021,140.8,128.2703318
12/03/2021,140.01,127.7574094
15/03/2021,139.99,127.7303184
16/03/2021,142.67,129.1101519
17/03/2021,140.58,127.8513247
18/03/2021,141.79,128.0843071
19/03/2021,140.64,127.2390688
22/03/2021,139.99,127.2968629
23/03/2021,139.91,127.0313713
24/03/2021,140.08,127.0927775
25/03/2021,138.65,126.2367028
26/03/2021,140.81,127.7249002
29/03/2021,140.24,127.6147303
30/03/2021,141.54,128.6044538
31/03/2021,142.53,128.6026477
01/04/2021,145.49,130.0962633
06/04/2021,147.68,131.1546172
07/04/2021,146.58,131.1094656
08/04/2021,147.52,131.5031877
09/04/2021,147.99,131.6946306
12/04/2021,146.29,130.8457801
13/04/2021,148.58,131.8499521
14/04/2021,149.91,132.1298922
15/04/2021,151.19,132.4947173
16/04/2021,152.6,133.6722715
19/04/2021,152.6,133.8998356
20/04/2021,147.46,131.7650671
21/04/2021,147.9,131.7235276
22/04/2021,149.59,133.0040275
23/04/2021,149.63,132.9823547
26/04/2021,151.19,134.1201755
27/04/2021,151.62,133.8637144
28/04/2021,151.1,133.9359569
29/04/2021,149.42,133.6253138
30/04/2021,148.12,133.269519
03/05/2021,148.63,134.1021149
04/05/2021,145.24,132.2689592
05/05/2021,147.36,133.7372898
06/05/2021,145.28,133.3417616
07/05/2021,147.71,135.1713052
10/05/2021,146.58,135.3302389
11/05/2021,142.71,132.6048872
12/05/2021,141.88,132.570572
14/05/2021,142.65,133.7752172
17/05/2021,142.54,133.6271199
18/05/2021,144.66,134.4344308
19/05/2021,142.16,132.5940508
20/05/2021,144.44,134.0425148
21/05/2021,145.31,134.6674132
25/05/2021,147.13,135.3844209
26/05/2021,148.01,135.5036212
27/05/2021,149.28,136.3831747
28/05/2021,150.15,137.2609222
31/05/2021,150.28,136.9936246
01/06/2021,151.22,138.035724
02/06/2021,151.63,138.3030215
03/06/2021,150.66,137.8930448
04/06/2021,151.19,138.6949376
07/06/2021,150.75,139.1356174
08/06/2021,150.6,139.3722119
09/06/2021,149.8,139.3830483
10/06/2021,149.15,139.0164171
11/06/2021,150.15,139.7063339
14/06/2021,150.37,140.2084199
15/06/2021,149.55,139.5871336
16/06/2021,151.01,139.7587097
17/06/2021,150.33,139.0109989
18/06/2021,149.46,137.2898192
21/06/2021,149.89,137.7955173
22/06/2021,151.08,138.4745977
23/06/2021,151.08,137.5589229
24/06/2021,151.06,138.3228883
25/06/2021,151.88,138.8954108
28/06/2021,151.28,138.0140512
29/06/2021,152.86,138.4222218
30/06/2021,151.2,137.3512254
01/07/2021,151.91,138.8014954
02/07/2021,153.86,139.821922
05/07/2021,155.2,140.5606025
06/07/2021,155.19,140.3926385
07/07/2021,155.44,141.3137315
08/07/2021,152.17,138.9802958
09/07/2021,153.01,140.6057541
12/07/2021,154.49,141.7562174
13/07/2021,155.41,141.6875869
14/07/2021,154.73,141.2058491
15/07/2021,152.42,139.6449277
16/07/2021,152.1,139.5185031
19/07/2021,150.06,136.4012353
20/07/2021,150.08,137.0983763
21/07/2021,154.1,139.7677401
22/07/2021,157.31,141.2848345
23/07/2021,157.31,142.469613
26/07/2021,158.49,142.4804493
27/07/2021,158.49,141.9169571
28/07/2021,157.69,143.1884267
29/07/2021,158.75,143.4340515
30/07/2021,159.25,142.8254077
02/08/2021,159.32,144.4002962
03/08/2021,159.27,144.3443082
04/08/2021,159.85,145.3448681
05/08/2021,158.86,146.2533186
06/08/2021,158.86,145.6735719
09/08/2021,159.63,145.4694865
10/08/2021,160.79,146.0853546
11/08/2021,160.51,146.9071141
12/08/2021,161.07,147.0335386
13/08/2021,160.35,147.295418
16/08/2021,158.68,146.7915259
17/08/2021,158.27,146.3941917
18/08/2021,159.27,147.3423757
19/08/2021,156.91,144.9692066
20/08/2021,157.96,145.623002
23/08/2021,160.54,146.5260344
24/08/2021,159.88,146.6091134
25/08/2021,160.49,146.9522657
26/08/2021,159.84,146.7499865
27/08/2021,161.32,147.7469342
30/08/2021,162.95,148.1225957
31/08/2021,162.72,147.5049215
01/09/2021,163.92,148.1930322
02/09/2021,164.95,149.3200166
03/09/2021,164.09,148.5054814
06/09/2021,165.19,148.9877007
07/09/2021,164.71,147.9889469
08/09/2021,162.14,146.1864942
09/09/2021,163.94,146.8384836
10/09/2021,163.63,146.1268941
13/09/2021,161.61,146.1323123
14/09/2021,161.58,146.3038885
15/09/2021,159.33,144.6206361
16/09/2021,161.19,145.5597898
17/09/2021,161.18,145.0558977
20/09/2021,156.38,142.5526919
21/09/2021,158.02,143.7194098
22/09/2021,160.11,145.0902129
23/09/2021,163.73,146.766241
24/09/2021,161.03,144.9366974
27/09/2021,158.6,144.4093265
28/09/2021,152.65,140.4377901
29/09/2021,153.41,140.5569904
30/09/2021,154.48,140.8965305
01/10/2021,151.3,140.8297062
04/10/2021,151.3,139.6358973
05/10/2021,153.9,140.9471004
06/10/2021,151.8,139.0778233
07/10/2021,154.07,140.6545179
08/10/2021,152.44,140.1434015
11/10/2021,150.87,139.6629883
12/10/2021,159.35,140.296917
13/10/2021,155.26,141.9657209
14/10/2021,157.48,143.7013491
15/10/2021,159.41,144.7109393
18/10/2021,159.35,144.1637017
19/10/2021,159.61,144.9493399
20/10/2021,160.1,145.3683469
21/10/2021,161.35,145.3268074
22/10/2021,162.34,145.8018025
25/10/2021,163.15,145.7241417
26/10/2021,163.52,146.6073073
27/10/2021,162.9,146.3363976
28/10/2021,164.41,146.766241
29/10/2021,164.93,146.0835486
02/11/2021,166.29,146.5260344
03/11/2021,166.92,147.0931388
04/11/2021,169.48,148.9190702
05/11/2021,167.5,149.1376041
08/11/2021,168.62,149.2712529
09/11/2021,168.71,148.9010096
10/11/2021,167.1,148.6120392
11/11/2021,166.98,148.855858
12/11/2021,167.73,149.3164045
15/11/2021,167.94,150.2086005
16/11/2021,168.14,150.0424425
17/11/2021,168.09,149.5800899
18/11/2021,167.57,148.7059546
19/11/2021,167.05,148.3519659
22/11/2021,165.75,148.0070075
23/11/2021,160.88,145.3791833
24/11/2021,159.62,145.11911
25/11/2021,161.16,146.2280337
26/11/2021,156.15,141.5105926
29/11/2021,158.06,142.7838682
30/11/2021,157.48,141.6153443
01/12/2021,159.37,143.3726453
02/12/2021,155.23,141.4419621
03/12/2021,152.93,139.6756308
06/12/2021,152.57,140.9398761
07/12/2021,157.69,144.309993
08/12/2021,156.99,143.3148513
09/12/2021,156.78,143.1306327
10/12/2021,155.03,142.303455
13/12/2021,154.68,141.2559374
14/12/2021,151.74,139.8056674
15/12/2021,152.86,139.9230616
16/12/2021,154.18,141.1006159
17/12/2021,153.52,140.9850277
20/12/2021,152.7,139.0850476
21/12/2021,154.38,141.0392097
22/12/2021,154.38,142.8651411
23/12/2021,159.91,144.3027687
24/12/2021,159.91,144.2540049
27/12/2021,161.51,145.2419224
28/12/2021,162.42,146.1648215
29/12/2021,163.63,146.7752714
30/12/2021,163.79,146.8746049
31/12/2021,163.58,146.5296466
03/01/2022,164.75,147.1924723
04/01/2022,162.91,148.3447416
05/01/2022,162.22,148.3519659
06/01/2022,158.82,146.3978038
07/01/2022,155.7,145.0378371
10/01/2022,150.21,141.9621088
11/01/2022,152.22,143.1414691
12/01/2022,155.77,144.3641749
13/01/2022,155.09,143.6616157
14/01/2022,151.3,141.465441
17/01/2022,152.7,142.2456609
18/01/2022,149.42,140.1379833
19/01/2022,150.58,140.8080334
20/01/2022,150.8,141.2270404
21/01/2022,146.36,137.8081598
24/01/2022,137.93,131.7596489
25/01/2022,139.16,132.3141108
26/01/2022,141.8,135.0918384
27/01/2022,141.42,135.5632213
28/01/2022,140.26,134.1851939
31/01/2022,143.32,135.8792826
01/02/2022,146.78,137.7955173
02/02/2022,147.96,139.1338113
03/02/2022,143.65,136.3019018
04/02/2022,141.33,133.5964168
07/02/2022,141.51,133.9504055
08/02/2022,140.34,133.964854
09/02/2022,144.32,137.3006556
10/02/2022,142.19,136.8617819
11/02/2022,140.43,136.0309921
14/02/2022,136.92,132.8649605
15/02/2022,141.22,135.2363236
16/02/2022,140.7,135.3067601
17/02/2022,138.7,133.881775
18/02/2022,136.96,132.1931044
21/02/2022,134.3,130.0926511
22/02/2022,135.29,130.2082393
23/02/2022,134.68,129.2582492
24/02/2022,130.28,124.5787354
25/02/2022,135.51,129.0920912
28/02/2022,137.6,129.9048204
01/03/2022,133.33,126.3667395
02/03/2022,133.32,127.636403
03/03/2022,128.75,123.9773158
04/03/2022,122.56,119.3989416
07/03/2022,120.28,117.735556
08/03/2022,121.04,117.5061858
09/03/2022,128.38,123.1862595
10/03/2022,126.36,122.3175423
11/03/2022,129.21,124.2518377
14/03/2022,131.18,126.0759631
15/03/2022,129.36,124.7033539
16/03/2022,136.53,129.6573895
17/03/2022,137.19,130.2407484
18/03/2022,138.82,131.4201087
21/03/2022,138.37,131.2395022
22/03/2022,139.67,132.1136376
23/03/2022,137.92,130.4972096
24/03/2022,134.98,129.6519713
25/03/2022,134.14,129.9590023
28/03/2022,134.91,130.3942639
29/03/2022,139.29,133.881775
30/03/2022,137.92,132.9462335
31/03/2022,135.5,131.2087991
01/04/2022,136.62,131.9402554